Tracking 28794 objects as of 19-Apr-2024
HD Live streaming from Space Station
objects crossing your sky now

PEGASUS DEB

Track PEGASUS DEB now!
10-day predictions


NORAD ID: 24581
Int'l Code: 1994-029YH
Perigee: 573.8 km
Apogee: 1,733.1 km
Inclination: 81.5 °
Period: 108.3 minutes
Semi major axis: 7524 km
RCS: 0.0163 m2 (small)
Launch date: May 19, 1994
Source: United States (US)
Launch site: AIR FORCE WESTERN TEST RANGE (AFWTR)

Note: This is SATELLITE DEBRIS
Your satellite tracking list
Your tracking list is empty




NASA's NSSDC Master Catalog

Two Line Element Set (TLE):
1 24581U 94029YH  24107.99430562  .00007550  00000-0  29420-2 0  9992
2 24581  81.5475 316.6706 0770383 246.2623 288.6959 13.30119897330256
Source of the keplerian elements: AFSPC